User: anonymous   Login
Location: Unspecified
(49.8670°N, 0.0000°E)
Time: 23:57:19
(UTC+00:00)
Language:

Tiros 1 - Orbit

View from above orbital plane
View from above orbital plane
View from above satellite
View from above satellite

Ground track
Ground track

The orbit data is extracted from the following two-line orbital elements,

1    29U 60002B   19177.50773698 -.00000165  00000-0  63974-5 0  9996
2    29  48.3780 193.0909 0023695 146.8702 213.3699 14.74308270165996
Epoch (UTC): 26 June 2019 12:11:08
Eccentricity: 0.0023695
inclination: 48.3780°
perigee height: 631 km
apogee height: 664 km
right ascension of ascending node: 193.0909°
argument of perigee: 146.8702°
revolutions per day: 14.74308270
mean anomaly at epoch: 213.3699°
orbit number at epoch: 16599

The dashed part of the orbit path shows where the satellite is in the earth's shadow,  

DLR